| time (UTC) | temp F | wind direction | speed knots | gust knots | rain 1hr in | rain 24hr in | rain mn in | humidity % | barometer mb |
| 20260905050805 | 53 | 273 | 1.7 | 2.6 | 0.00 | 0.00 | 0.00 | 76 | 1016.6 |
| 20260905050304 | 53 | 274 | 0.9 | 2.6 | 0.00 | 0.00 | 0.00 | 76 | 1016.6 |
| 20260905040804 | 59 | 43 | 0.0 | 0.9 | 0.00 | 0.00 | 0.00 | 61 | 1016.3 |
| 20260905040306 | 60 | 35 | 0.0 | 1.7 | 0.00 | 0.00 | 0.00 | 63 | 1016.3 |
| 20260905030805 | 66 | 57 | 0.9 | 1.7 | 0.00 | 0.00 | 0.00 | 51 | 1016.0 |
| 20260905030304 | 66 | 46 | 0.9 | 1.7 | 0.00 | 0.00 | 0.00 | 50 | 1016.0 |
| 20260905020805 | 70 | 60 | 0.9 | 1.7 | 0.00 | 0.00 | 0.00 | 44 | 1015.9 |
| 20260905000805 | 72 | 38 | 1.7 | 2.6 | 0.00 | 0.00 | 0.00 | 40 | 1016.5 |
| 20260905000304 | 72 | 6 | 1.7 | 4.3 | 0.00 | 0.00 | 0.00 | 40 | 1016.6 |
| 20260904230805 | 68 | 51 | 0.9 | 2.6 | 0.00 | 0.00 | 0.00 | 44 | 1017.2 |
| 20260904230304 | 68 | 53 | 1.7 | 2.6 | 0.00 | 0.00 | 0.00 | 44 | 1017.3 |
| 20260904220805 | 65 | 61 | 0.9 | 1.7 | 0.00 | 0.00 | 0.00 | 43 | 1017.7 |
| 20260904220306 | 65 | 56 | 0.9 | 5.2 | 0.00 | 0.00 | 0.00 | 44 | 1017.8 |
| 20260904200805 | 59 | 88 | 0.9 | 1.7 | 0.00 | 0.00 | 0.00 | 55 | 1019.0 |
| 20260904190804 | 56 | 339 | 0.0 | 2.6 | 0.00 | 0.00 | 0.00 | 58 | 1019.5 |
| 20260904190305 | 56 | 45 | 0.9 | 4.3 | 0.00 | 0.00 | 0.00 | 57 | 1019.5 |
| 20260904180804 | 49 | 65 | 1.7 | 5.2 | 0.00 | 0.00 | 0.00 | 72 | 1019.9 |
| 20260904180305 | 48 | 276 | 4.3 | 7.0 | 0.00 | 0.00 | 0.00 | 75 | 1020.0 |
| 20260904170804 | 43 | 320 | 1.7 | 4.3 | 0.00 | 0.00 | 0.00 | 82 | 1020.4 |
| 20260904170305 | 43 | 281 | 2.6 | 7.0 | 0.00 | 0.00 | 0.00 | 84 | 1020.5 |
| 20260904160804 | 38 | 279 | 2.6 | 2.6 | 0.00 | 0.00 | 0.00 | 98 | 1020.5 |
| 20260904160304 | 38 | 275 | 2.6 | 5.2 | 0.00 | 0.00 | 0.00 | 99 | 1020.5 |
| 20260904150804 | 35 | 264 | 2.6 | 4.3 | 0.00 | 0.00 | 0.00 | 99 | 1020.6 |
| 20260904150304 | 35 | 210 | 2.6 | 5.2 | 0.00 | 0.00 | 0.00 | 99 | 1020.6 |
| 20260904140804 | 35 | 217 | 2.6 | 4.3 | 0.00 | 0.00 | 0.00 | 98 | 1020.8 |
| 20260904140305 | 35 | 278 | 1.7 | 5.2 | 0.00 | 0.00 | 0.00 | 98 | 1020.8 |
| 20260904130305 | 36 | 279 | 4.3 | 4.3 | 0.00 | 0.00 | 0.00 | 98 | 1020.9 |
| 20260904120805 | 34 | 127 | 1.7 | 4.3 | 0.00 | 0.00 | 0.00 | 98 | 1020.8 |
| 20260904120306 | 34 | 257 | 2.6 | 4.3 | 0.00 | 0.00 | 0.00 | 98 | 1020.7 |
| 20260904110805 | 34 | 276 | 2.6 | 4.3 | 0.00 | 0.00 | 0.00 | 98 | 1021.0 |
| 20260904110304 | 34 | 133 | 1.7 | 4.3 | 0.00 | 0.00 | 0.00 | 98 | 1021.1 |
| 20260904100804 | 34 | 275 | 2.6 | 4.3 | 0.00 | 0.00 | 0.00 | 98 | 1021.2 |
| 20260904100305 | 34 | 251 | 2.6 | 5.2 | 0.00 | 0.00 | 0.00 | 98 | 1021.3 |
| 20260904090805 | 35 | 282 | 1.7 | 4.3 | 0.00 | 0.00 | 0.00 | 97 | 1021.4 |
| 20260904090304 | 36 | 269 | 3.5 | 5.2 | 0.00 | 0.00 | 0.00 | 97 | 1021.3 |
| 20260904080805 | 36 | 281 | 4.3 | 4.3 | 0.00 | 0.00 | 0.00 | 96 | 1021.0 |
| 20260904070811 | 38 | 278 | 2.6 | 2.6 | 0.00 | 0.00 | 0.00 | 94 | 1021.0 |
| 20260904070305 | 38 | 280 | 2.6 | 4.3 | 0.00 | 0.00 | 0.00 | 94 | 1021.1 |
| 20260904060805 | 41 | 275 | 2.6 | 4.3 | 0.00 | 0.00 | 0.00 | 90 | 1021.0 |
| 20260904060305 | 41 | 274 | 4.3 | 6.1 | 0.00 | 0.00 | 0.00 | 90 | 1021.0 |